Wilmington, DE

12:43 PM EST on November 15, 2019 (GMT -0500)
New Castle County

Weather History for KILG - August, 2019

Change the Weather History Date:

Tuesday, August 20, 2019

  Actual Average Record
Temperature  
Mean Temperature 82 °F 75 °F  
Max Temperature 91 °F 84 °F 100 °F (1983)
Min Temperature 73 °F 66 °F 48 °F (1949)
Degree Days  
Heating Degree Days 0 0  
Month to date heating degree days 0 0  
Since 1 June heating degree days 5 15  
Since 1 July heating degree days 0 0  
Cooling Degree Days 17 10  
Month to date cooling degree days 276 216  
Year to date cooling degree days 1138 893  
Since 1 June cooling degree days 1006 814  
Growing Degree Days 32 (Base 50)    
Moisture  
Dew Point 73 °F    
Average Humidity 73    
Maximum Humidity 94    
Minimum Humidity 52    
Precipitation  
Precipitation 0.12 in 0.10 in 2.31 in (1997)
Month to date precipitation 2.19 2.18  
Year to date precipitation 35.65 27.69  
Snow  
Snow 0.00 in 0.00 in 0.00 in (1894)
Month to date snowfall 0.0 0.0  
Since 1 June snowfall 0.0 0.0  
Since 1 July snowfall 0.0 0.0  
Snow Depth 0.00 in    
Sea Level Pressure  
Sea Level Pressure 30.06 in    
Wind  
Wind Speed 5 mph (SSE)    
Max Wind Speed 14 mph    
Max Gust Speed 16 mph    
Visibility 10 miles    
Events Rain , Thunderstorm    
T = Trace of Precipitation, MM = Missing Value Source: NWS Daily Summary

Daily Weather History Graph

Daily Weather History Graph

Search for Another Location

Airport or City:

Astronomy

Aug. 20, 2019 Rise Set
Actual Time 6:19 AM EDT 7:51 PM EDT
Civil Twilight 5:50 AM EDT 8:20 PM EDT
Nautical Twilight 5:16 AM EDT 8:54 PM EDT
Astronomical Twilight 4:39 AM EDT 9:30 PM EDT
Moon 10:40 PM EDT (8/20) 10:54 AM EDT (8/20)
Length of Visible Light 14h 29m
Length of Day
13h 32m
Waning Gibbous, 78% of the Moon is Illuminated
Aug 20
Waning Gibbous
Aug 23
Last Quarter
Aug 30
New
Sep 5
First Quarter
Sep 14
Full

Hourly Weather History & Observations

Time (EDT) Temp. Heat Index Dew Point Humidity Pressure Visibility Wind Dir Wind Speed Gust Speed Precip Events Conditions
12:51 AM 78.1 °F - 75.0 °F 90% 30.03 in 10.0 mi NNW 5.8 mph - N/A   Clear
1:51 AM 78.1 °F - 75.0 °F 90% 30.03 in 10.0 mi Calm Calm - N/A   Clear
2:51 AM 75.9 °F - 73.9 °F 94% 30.03 in 10.0 mi NW 3.5 mph - N/A   Clear
3:51 AM 77.0 °F - 73.9 °F 90% 30.04 in 10.0 mi Calm Calm - N/A   Clear
4:51 AM 73.9 °F - 72.0 °F 93% 30.04 in 10.0 mi NNW 3.5 mph - N/A   Clear
5:51 AM 75.0 °F - 73.0 °F 94% 30.06 in 10.0 mi Calm Calm - N/A   Clear
6:51 AM 73.9 °F - 71.1 °F 91% 30.08 in 10.0 mi North 3.5 mph - N/A   Clear
7:51 AM 79.0 °F - 72.0 °F 79% 30.09 in 10.0 mi Calm Calm - N/A   Clear
8:13 AM 80.1 °F 83.8 °F 72.0 °F 76% 30.10 in 10.0 mi Calm Calm - N/A   Clear
8:51 AM 82.9 °F 87.5 °F 71.1 °F 67% 30.10 in 10.0 mi NNE 4.6 mph - N/A   Clear
9:51 AM 86.0 °F 91.5 °F 71.1 °F 61% 30.10 in 10.0 mi ENE 9.2 mph - N/A   Clear
10:51 AM 87.1 °F 93.6 °F 72.0 °F 61% 30.10 in 10.0 mi SE 5.8 mph - N/A   Clear
11:51 AM 88.0 °F 94.7 °F 72.0 °F 59% 30.10 in 10.0 mi SE 4.6 mph - N/A   Clear
12:51 PM 90.0 °F 95.4 °F 70.0 °F 52% 30.08 in 10.0 mi Variable 3.5 mph - N/A   Clear
1:51 PM 89.1 °F 95.0 °F 71.1 °F 55% 30.08 in 10.0 mi SSE 6.9 mph - N/A   Mostly Cloudy
2:51 PM 91.0 °F 98.2 °F 72.0 °F 53% 30.06 in 10.0 mi South 9.2 mph - N/A   Clear
3:51 PM 88.0 °F 94.7 °F 72.0 °F 59% 30.05 in 10.0 mi SSE 11.5 mph - N/A   Partly Cloudy
4:25 PM 87.1 °F 93.6 °F 72.0 °F 61% 30.06 in 10.0 mi South 6.9 mph - N/A Thunderstorm Thunderstorm
4:51 PM 81.0 °F 86.7 °F 75.0 °F 82% 30.06 in 3.0 mi SSW 6.9 mph - 0.11 in Rain , Thunderstorm Heavy Thunderstorms and Rain
4:55 PM 81.0 °F 87.3 °F 75.9 °F 85% 30.06 in 10.0 mi South 5.8 mph - 0.01 in   Overcast
5:13 PM 84.0 °F 91.9 °F 75.0 °F 74% 30.05 in 10.0 mi ESE 4.6 mph - 0.01 in   Scattered Clouds
5:51 PM 84.9 °F 92.1 °F 73.9 °F 69% 30.03 in 10.0 mi SE 8.1 mph - 0.01 in   Clear
6:51 PM 82.9 °F 87.5 °F 71.1 °F 67% 30.02 in 10.0 mi SSE 9.2 mph - N/A   Clear
7:51 PM 82.0 °F 88.6 °F 75.0 °F 79% 30.02 in 10.0 mi SSE 6.9 mph - N/A   Clear
8:51 PM 81.0 °F 87.3 °F 75.9 °F 85% 30.05 in 10.0 mi South 9.2 mph - N/A   Clear
9:51 PM 79.0 °F - 75.0 °F 88% 30.05 in 10.0 mi South 3.5 mph - N/A   Clear
10:51 PM 78.1 °F - 75.0 °F 90% 30.02 in 10.0 mi SSW 3.5 mph - N/A   Clear
11:51 PM 78.1 °F - 73.9 °F 87% 30.04 in 10.0 mi SSE 8.1 mph - N/A   Clear